www.pogodaiklimat.ru

Погода и климат >> Архив погоды >> Россия >> Якутия >> Усть-Нера


ПОГОДА в Усть-Нере

  • Прогноз погоды в Усть-Нере
  • Монитор погоды в Усть-Нере
  • Климат города

АРХИВ ПОГОДЫ в Усть-Нере

Время (UTC), дата Ветер
(напр.,м/с)
 
Видим.   Явления Облачность Т
(С)
Тd
(С)
f
(%)
Тe
(С)
Тes
(С)
Комфортность P
(гПа)
Po
(гПа)
Тmin
(С)
Tmax
(С)
R
(мм)
R24
(мм)
S
(см)
03 9.07 З 5 20 км 4/0
[Ac trans Ci fib]
+32.8 +10.3 25 +32 +38 жарко 1009.7 953.3
06 9.07 ЮЗ 4 20 км 4/1 1500 м
[Cu hum Ci fib]
+35.5 +6.5 17 +33 +37 жарко 1006.2 951.3
09 9.07 З 2 20 км 3/0
[Ci fib]
+33.2 +7.0 20 +31 +33 жарко 1006.5 950.2 +36.1
12 9.07 штиль 0 20 км 9/0
[Ci fib]
+18.5 +11.2 62 +19 +19 1009.3 950.2
15 9.07 штиль 0 20 км 6/0
[Ci fib]
+12.2 +9.0 81 +12 +12 1011.0 950.5
18 9.07 штиль 0 20 км 8/1 1500 м
[Sc Ci fib]
+8.9 +7.4 90 +8 +8 1012.3 951.5
21 9.07 В 2 20 км 8/1 1500 м
[Sc Ci sp]
+16.2 +9.7 65 +16 +19 1010.9 951.2 +8.1
00 10.07 В 4 20 км 6/1 1500 м
[Cu hum Ci fib]
+26.2 +13.5 45 +28 +33 жарко 1007.1 949.6
03 10.07 Ю 1 20 км 8/3 1500 м
[Cu hum Ci fib]
+30.5 +12.4 33 +31 +40 жарко 1003.6 947.2
06 10.07 ЮЗ 2 20 км 8/4 1500 м
[Cu hum Ci fib]
+31.9 +14.3 34 +33 +37 жарко 1000.5 944.5
09 10.07 З 5 10 км дым 8/3 1500 м
[Cu hum Ci fib]
+30.5 +9.9 28 +30 +31 жарко 999.2 942.9 +33.4
12 10.07 ЮЗ 2 10 км дым 8/0
[Ac trans Ci fib]
+22.7 +12.1 51 +25 +25 комфорт 1000.8 943.1
15 10.07 штиль 0 10 км дым 8/0
[Ac trans Ci fib]
+11.9 +9.1 83 +11 +11 1003.7 943.6
18 10.07 СВ 2 20 км дым 10/0
[Ac trans Ci fib]
+14.7 +11.5 81 +14 +14 1004.0 944.5
21 10.07 В 5 20 км дым 10/0
[Ac trans Ci fib]
+18.5 +11.2 62 +19 +20 1004.1 944.4 +10.3
00 11.07 СВ 5 20 км дым 8/0
[Ac trans Ci fib]
+22.4 +11.5 50 +25 +28 комфорт 1002.0 944.1
03 11.07 СВ 2 20 км дым 10/0
[Ci fib]
+26.9 +13.4 43 +29 +38 жарко 999.1 942.3
06 11.07 штиль 0 20 км дым 6/1
[Cu hum Ci fib]
+29.6 +11.0 32 +30 +38 жарко 996.6 940.3
09 11.07 СВ 1 10 км дым 8/1 1500 м
[Cu hum Ci fib]
+28.7 +10.9 33 +29 +31 жарко 996.2 939.8 +30.4
12 11.07 СЗ 2 10 км дым 9/4 1500 м
[Sc Ci fib]
+20.8 +10.1 50 +23 +23 комфорт 999.6 941.5
15 11.07 штиль 0 10 км дым 10/5 1500 м
[Sc Ci fib]
+17.2 +11.3 68 +17 +17 1000.7 941.9
18 11.07 ЮЗ 4 10 км дым 9/3 1500 м
[Sc Ci fib]
+14.5 +11.1 80 +13 +13 1001.5 942.1
21 11.07 З 6 10 км дым 10/6 1500 м
[Sc Ac trans Ci fib]
+16.8 +11.5 71 +16 +16 1001.5 942.6 +13.8
00 12.07 З 4 20 км дым 10/4 1500 м
[Cb cap Ac und]
+19.5 +14.2 71 +21 +22 комфорт 1000.8 942.5
03 12.07 ЮЗ 3 20 км дым 10/4 1500 м
[Cb cap Ac und]
+20.2 +14.8 71 +23 +25 комфорт 999.4 941.4
06 12.07 З 3 10 км дым 10/3 1500 м
[Cb cap Ac trans Ci fib]
+25.2 +13.9 50 +28 +30 жарко 996.2 939.2
09 12.07 З 4 10 км дым 10/3 1500 м
[Cb cap Ac trans Ci fib]
+23.7 +11.9 48 +25 +26 комфорт 996.5 939.2 +25.5
12 12.07 З 2 20 км 8/4 1500 м
[Sc Ci fib]
+15.7 +12.4 81 +16 +16 998.3 939.4
15 12.07 ЮЗ 3 20 км дым 10/4 1500 м
[Cb cap Ci fib]
+15.6 +12.1 80 +15 +15 998.0 939.1
18 12.07 З 4 20 км дым 10/3 1500 м
[Cb cap Ci fib]
+15.7 +11.6 77 +15 +15 998.3 939.4
21 12.07 З 4 20 км дым 10/6 1500 м
[Cb cap Ac und]
+15.9 +12.3 79 +15 +15 999.1 940.1 +14.3
00 13.07 З 5 20 км дым 10/5 1500 м
[Cb cap Ac und]
+19.3 +11.3 60 +20 +21 999.1 940.8
03 13.07 З 5 20 км дым 10/5 1500 м
[Cb cap Ac und]
+21.2 +12.6 58 +23 +24 комфорт 999.1 941.2
06 13.07 ЮЗ 3 20 км дым 9/6 1500 м
[Cb cap Ac trans]
+20.6 +13.1 62 +23 +25 комфорт 999.6 941.5
09 13.07 З 3 20 км 9/4 1500 м
[Cb cap Ac trans]
+19.7 +12.2 62 +21 +22 комфорт 999.8 941.5 +22.4
12 13.07 З 3 20 км дым 10/5 1500 м
[Sc Ac und]
+17.6 +13.2 75 +18 +18 1000.5 941.8
15 13.07 ЮЗ 2 20 км дым 10/6 1410 м
[Cb cap Ac und]
+15.5 +12.4 82 +15 +15 1001.3 942.1
18 13.07 ЮЗ 2 20 км дым 10/6 1470 м
[Cb cap Ac und]
+15.5 +13.0 85 +15 +15 1001.4 942.2
21 13.07 З 3 20 км дым {ливн. осадки} 10/8 1410 м
[Cb cap Ac und]
+15.1 +14.4 96 +14 +14 1002.6 943.3 +14.3 0.3
00 14.07 ЮЗ 3 20 км дым {ливн. осадки} 9/3 1000 м
[Cb cap Ac trans]
+21.1 +16.1 73 +24 +27 комфорт 1001.6 943.6
03 14.07 ЮЗ 4 20 км дым 10/4 1000 м
[Cb cap Ci fib]
+23.6 +14.1 55 +26 +30 жарко 1000.7 943.2
06 14.07 З 6 20 км дым 10/4 1500 м
[Cb cap Cs]
+23.1 +13.3 54 +26 +28 жарко 1000.5 942.9
09 14.07 З 4 20 км дым 10/3 1500 м
[Cb cap As trans]
+22.0 +14.7 63 +25 +26 комфорт 1001.5 943.6 +24.0
12 14.07 З 3 20 км дым 10/5 1500 м
[Cb cap Ac und]
+18.7 +14.4 76 +20 +20 1003.2 944.5
15 14.07 З 3 20 км дым 10/5 1500 м
[Cb cap Ac und]
+17.0 +13.7 81 +17 +17 1004.3 945.3
18 14.07 З 3 20 км дым 10/4 1500 м
[Cb cap Ac und]
+15.6 +14.0 90 +15 +15 1005.7 945.9
21 14.07 СВ 1 20 км дым 10/6 1410 м
[Cb cap Ac und]
+15.6 +14.2 91 +16 +17 1006.7 947.3 +15.1
00 15.07 штиль 0 20 км слабый ливневой дождь 10/8 1350 м
[Cb cap Ac und]
+16.5 +15.3 93 +16 +17 1007.6 948.3
03 15.07 В 2 20 км в посл. час ливневой дождь 10/10 1410 м
[Cb cap]
+16.2 +15.2 94 +16 +16 1007.8 948.5
06 15.07 В 1 20 км {ливн. осадки} 10/10 1320 м
[Cb cap]
+16.8 +15.8 94 +18 +18 1007.3 948.1
09 15.07 штиль 0 20 км слабый ливневой дождь 10/10 300 м
[Cb cap]
+16.8 +16.1 96 +17 +17 1007.3 948.1 0.5
12 15.07 В 2 20 км {ливн. осадки} 10/6 1440 м
[Cb cap Ac und]
+15.9 +15.4 97 +16 +16 1007.0 947.6
15 15.07 штиль 0 20 км 10/6 1380 м
[Cb cap Ac und]
+13.7 +13.3 97 +13 +13 1007.1 947.3
18 15.07 ЮЗ 1 10 км {ливн. осадки} 10/10 1200 м
[Cb cap]
+14.0 +13.8 99 +14 +14 1006.8 947.1
21 15.07 ЮЗ 3 20 км 9/9 1320 м
[Cb cap]
+15.7 +14.7 94 +15 +15 1006.6 947.3 +13.4 0.4

 

Местоположение метеостанции Усть-Нера (Якутия, Россия): широта 64.53 долгота 143.10 высота над уровнем моря 519 м.

В архиве по умолчанию представлена погода в Усть-Нере за последнюю неделю. Архивные данные за месяц целиком и за предыдущие месяцы, начиная с января 2011 года, Вы можете получить, выбрав интересующий диапазон дат из раскрывающегося списка и нажав кнопку "Ввод!".


*Определитесь, кто Вы:
робот инопланетянин человек

Внимание! Время в таблицах - всемирное. Для получения местного времени необходимо прибавить поправку, которая в Усть-Нере равна 10 ч.

Смотрите также архив погоды в соседних городах и на ближайших метеорологических станциях:

Погода в Юртах (Якутия, Россия) (82 км)
Погода в Оймяконе (Якутия, Россия) (142 км)
Погода в Делянкире (Якутия, Россия) (144 км)
Погода в Агаякане (Якутия, Россия) (150 км)
Погода в Усть-Моме (Якутия, Россия) (214 км)
Погода в Восточной (Якутия, Россия) (224 км)
Погода в Сусумане (Магаданская область, Россия) (314 км)
Погода в Иэме (Якутия, Россия) (355 км)
Погода в Томпо (Якутия, Россия) (359 км)
Погода в Теплом Ключе (Якутия, Россия) (367 км)

Пояснения к столбцам:

Ветер - указаны скорость ветра в м/с - средняя за 10 мин, порывы в срок и между сроками (в фигурных скобках) и направление, откуда дует ветер: С - северный, СВ - северо-восточный, В - восточный, ЮВ - юго-восточный, Ю - южный, ЮЗ - юго-западный, З - западный, СЗ - северо-западный.
Видимость - горизонтальная дальность видимости в метрах или километрах. При видимости от 1 до 10 км при отсутствии осадков обычно наблюдается дымка, при ухудшении видимости до 1 км и менее - туман. В сухую погоду видимость может ухудшаться дымом, пылью или мглою.
Явления - указаны атмосферные явления, наблюдавшиеся в срок или в последний час перед сроком; фигурными скобками обозначены явления, наблюдавшиеся между сроками (за 1-3 часа до срока); квадратными скобками обозначены град или гололедные отложения с указанием их диаметра в мм.
Облачность - указаны через наклонную черту общая и нижняя облачность в баллах и высота нижней границы облаков в метрах; квадратными скобками обозначены формы облаков: Ci - перистые, Cs - перисто-слоистые, Cc - перисто-кучевые, Ac - высококучевые, As - высокослоистые, Sc - слоисто-кучевые, Ns - слоисто-дождевые, Cu - кучевые, Cb - кучево-дождевые. Подробнее классификацию облаков см. в Атласе облаков (PDF).
T - Температура воздуха - температура, измеренная на высоте 2 м над землей.
Td - Температура точки росы - температура, при понижении до которой содержащийся в воздухе водяной пар достигнет насыщения.
f - Относительная влажность воздуха - влажноcть воздуха, измеренная на высоте 2 м над землей.
Te - Эффективная температура - температура, которую ощущает одетый по сезону человек в тени. Характеристика душности погоды. При расчете учитывается влияние влажности воздуха и скорости ветра на теплоощущения человека.
Tes - Эффективная температура на солнце - температура, которую ощущает человек, с поправкой на солнечный нагрев. Характеристика знойности погоды. Зависит от высоты солнца над горизонтом, облачности и скорости ветра. Ночью, в пасмурную погоду, а также при ветре 12 м/с и более поправка равна нулю.
P - Атмосферное давление - приведенное к уровню моря атмосферное давление.
Po - Атмосферное давление - измеренное на уровне метеостанции атмосферное давление.
Tmin - Минимальная температура - минимум температуры воздуха на высоте 2 м над землей.
Tmax - Максимальная температура - максимум температуры воздуха на высоте 2 м над землей.
R - Количество осадков - Количество выпавших осадков за период времени, мм. При наведении курсора мыши на число - период времени, за который выпало указанное количество осадков.
R24 - Количество осадков - Количество выпавших осадков за 24 часа, мм.
S - Снежный покров - Высота снежного покрова, см. При наведении курсора мыши на число - состояние снежного покрова и степень покрытия местности в баллах.